Regional Weather Roundup
Issued by NWS

Home | Current Version | Previous Version | Text Only | Print | Product List | Glossary Off
Versions: 1 2 3 4 5 6 7 8 9 10 11 12 13 14 15 16 17 18 19 20 21 22 23 24 25 26 27 28 29 30 31 32 33 34 35 36 37 38 39 40 41 42 43 44 45 46 47 48 49 50

000
ASUS43 KDMX 011107
RWRIA

WEATHER ROUNDUP FOR IOWA
NATIONAL WEATHER SERVICE DES MOINES IA
500 AM CST SUN FEB 01 2015

NOTE: "FAIR" INDICATES FEW OR NO CLOUDS BELOW 12,000 FEET WITH NO
SIGNIFICANT WEATHER AND/OR OBSTRUCTIONS TO VISIBILITY.

* - THESE STATIONS ARE NOT NWS STATIONS...THUS NOT UNDER NWS
QUALITY CONTROL.  THEY ALSO DO NOT REPORT WEATHER SUCH
AS PRECIPITATION OR FOG.

IAZ001>003-012>014-020>022-031>034-043>046-011200-
   NORTHWEST IOWA

CITY           SKY/WX    TMP DP  RH WIND       PRES   REMARKS
CARROLL *      LGT SNOW  27  27 100 NE22      29.83S VSB 3/4 WCI  12
CHEROKEE *     LGT SNOW  21  19  93 NE17G30   29.94R WCI   7
DENISON *      LGT SNOW  27  27 100 NE16G26   29.83R WCI  14
LE MARS *      LGT SNOW  21  19  93 N22G29    29.98R WCI   5
ORANGE CITY *  LGT SNOW  19  16  86 NE15G30   29.98R WCI   5
SHELDON *      LGT SNOW  18  18 100 N25G35    29.97R VSB 1   WCI  -1
SIOUX CITY     LGT SNOW  24  20  84 N20G31    29.95R FOG     WCI  10
SPENCER        LGT SNOW  20  15  81 NE30G38   29.97S VSB 1   WCI   1
STORM LAKE *   LGT SNOW  21  18  86 NE31G39   29.90R VSB 3/4 WCI   3
$$

IAZ055>058-069>071-079>083-090>094-011200-
   SOUTHWEST IOWA

CITY           SKY/WX    TMP DP  RH WIND       PRES   REMARKS
ATLANTIC *     LGT SNOW  32  32 100 NE6       29.78F WCI  26
AUDUBON *      LGT SNOW  30  28  93 N8        29.81R WCI  23
CLARINDA *     LGT SNOW  32  32 100 N6        29.78S WCI  26
COUNCIL BLFS * LGT SNOW  32  32 100 N10       29.77F WCI  24
CRESTON *      LGT SNOW  32  32 100 NE9       29.76F WCI  24
HARLAN  *      HVY RAIN  30  30 100 N17       29.83S VSB 1   WCI  18
LAMONI         LGT SNOW  32  31  96 NE6       29.75F VSB 1   WCI  26
RED OAK *      LGT SNOW  32  32 100 NE8       29.77F WCI  25
SHENANDOAH *   LGT SNOW  32  32 100 NE7       29.78S WCI  26
$$

IAZ047>049-059>061-072>074-084-011200-
   CENTRAL IOWA

CITY           SKY/WX    TMP DP  RH WIND       PRES   REMARKS
AMES           LGT SNOW  31  29  92 NE12      29.82F FOG     WCI  22
ANKENY *       LGT SNOW  32  32 100 E14G23    29.81F WCI  22
CHARITON *     LGT SNOW  32  32 100 E5        29.78S WCI  27
DES MOINES     LGT SNOW  33  31  92 E7        29.80S FOG     WCI  27
GRINNELL*      LGT SNOW  32  32 100 NE10      29.81F WCI  24
KNOXVILLE *    LGT SNOW  32  32 100 E7        29.78F WCI  26
MARSHALLTOWN   LGT SNOW  30  28  92 E21       29.83F FOG     WCI  17
PELLA *        RAIN      32  32 100 E3        29.81F
PERRY *        LGT SNOW  32  32 100 NE7       29.81F WCI  26
$$

IAZ004>006-015-016-023>025-035-036-011200-
   NORTH CENTRAL IOWA

CITY           SKY/WX    TMP DP  RH WIND       PRES   REMARKS
ALGONA *       LGT SNOW  19  18  93 NE25G33   29.95S VSB 3/4 WCI   2
CLARION *      LGT SNOW  25  25 100 NE25      29.89R WCI   9
ESTHERVILLE    LGT SNOW  17  14  88 NE28      29.99R VSB 1   WCI  -2
FORT DODGE *   CLOUDY    25  21  86 CALM      29.88F
MASON CITY     LGT SNOW  23  21  92 NE21G30   29.96S VSB 1   WCI   8
FOREST CITY *  LGT SNOW  21  19  93 NE17G30   29.95S WCI   7
IOWA FALLS *   LGT SNOW  27  25  93 NE13G18   29.88S WCI  16
$$

IAZ007>011-017>019-026>030-037>042-050>054-066-011200-
   NORTHEAST IOWA

CITY           SKY/WX    TMP DP  RH WIND       PRES   REMARKS
CEDAR RAPIDS   LGT SNOW  31  31 100 E18       29.86F VSB 3/4 WCI  19
CHARLES CITY * LGT SNOW  25  25 100 NE22      29.94S WCI  10
CLINTON *      CLOUDY    34  30  86 E15       29.94F WCI  24
DECORAH *      LGT SNOW  23  19  86 E22G30    29.99R VSB 1   WCI   8
DUBUQUE        LGT SNOW  26  24  92 NE17G25   29.94F VSB 3/4 WCI  13
MONTICELLO *   SNOW      30  30 100 E16G23    29.91F VSB 1/2 WCI  19
OELWEIN *      LGT SNOW  27  25  93 E23G33    29.90F WCI  12
WATERLOO       LGT SNOW  27  25  92 E23       29.90S VSB 1   WCI  12
$$

IAZ064-065-067-068-078-011200-
   EAST CENTRAL IOWA

CITY           SKY/WX    TMP DP  RH WIND       PRES   REMARKS
DAVENPORT      SNOW      32  30  92 E14       29.90F VSB 1/2 WCI  22
IOWA CITY      LGT SNOW  33  32  96 E10       29.87F VSB 3/4 WCI  25
MT. PLEASANT * LGT SNOW  32  32 100 SE8       29.82F WCI  25
MUSCATINE *    LGT SNOW  34  32  93 E5        29.87F WCI  30
QUAD CITIES    LGT SNOW  32  31  96 E10       29.88F VSB 3/4 WCI  24
$$

IAZ062-063-075>077-085>089-095>099-011200-
   SOUTHEAST IOWA

CITY           SKY/WX    TMP DP  RH WIND       PRES   REMARKS
BURLINGTON     LGT SNOW  32  32 100 SE10      29.83F VSB 1   WCI  24
FAIRFIELD *    LGT SNOW  32  32 100 SE12      29.80F WCI  23
FORT MADISON * LGT SNOW  32  32 100 SE7       29.82F VSB 1   WCI  26
KEOKUK *       LGT SNOW  32  32 100 SE8       29.81F VSB 1   WCI  25
OSKALOOSA *    LGT SNOW  32  32 100 E8        29.80F WCI  25
CENTERVILLE *  LGT SNOW  32  32 100 E3        29.80R
OTTUMWA        LGT SNOW  32  32 100 SE9       29.79F FOG     WCI  24
WASHINGTON *   LGT SNOW  34  34 100 E9        29.83F WCI  26
$$

ABBREVIATIONS USED IN REMARKS
   TC - TEMPERATURES IN CELSIUS
  WCI - WIND CHILL INDEX
   HX - HEAT INDEX
  VSB - VISIBILITY
$$




USA.gov is the U.S. government's official web portal to all federal, state and local government web resources and services.